COSMOS 2251 DEB, 33938

Orbit data source: Space-Track

COSMOS 2251 DEB, 33938 is space debris in LEO originally from a launch on Wed, 16 Jun 1993 UTC launched from the Plesetsk Missile And Space Complex (PKMTR). The debris from Iridium 33, an American commercial communications satellite, has been tracked extensively since its accidental collision with the defunct Russian satellite Cosmos 2251 in 2009. This event, occurring at high speed in low Earth orbit (LEO), generated thousands of pieces of space debris, significantly increasing the risk of further collisions. The Iridium 33 debris cloud has impacted space traffic management and orbital debris mitigation strategies, making it a subject of ongoing study in space situational awareness.

Loading next visibility...
Identifier
33938, 1993-036ET
Orbit
LEO
Country
Flag of CISCIS
Related business
Manufacturer
Unknown
Mission
Spacecraft
Bus & Motor
Unknown
Mass
Unknown
Launch date (UTC)
1993-06-16 (33 years ago)
Launch vehicle
Unknown
Launch site
Plesetsk Missile And Space Complex (PKMTR)
Object type
Payload
Rocket body
Debris
Shape & HBR
Unknown shape, 0.2 m
Radar Cross Section
Small (<0.1 m²)

Expand to show TLE details & history
Last TLE update: 10 hours ago

TLE from 10 hours ago
0 COSMOS 2251 DEB
1 33938U 93036ET  26123.60070677  .00001347  00000-0  37464-3 0  9996
2 33938  74.0442 302.1876 0015840 351.7390  75.4596 14.47333128904524
Epoch: 2026-05-03T14:25Z
TLE epoch observation values (Epoch: 2026-05-03T14:25:01.064Z)
Latitude
62.66081°
Longitude
-102.19795°
Altitude
741.962 km
Speed
7.491 km/s
True Right ascension
22h 22m 14s
True Declination
62° 31' 12"
Sunlit
Object was in daylight at epoch
Visualization orbit readout
Latitude
Unknown
Longitude
Unknown
Altitude
Unknown
Speed
Unknown
Apparent Right ascension
Unknown
Apparent Declination
Unknown
Sunlit
N/A
Visualization observer readout
Local Sidereal Time
08:33:42
Azimuth
Unknown
Elevation
Unknown
Doppler factor
Unknown
Orbital elements
Apogee altitude
743.245 km
Perigee altitude
720.721 km
Semi-major axis
7,110.12 km
Eccentricity
0.00158
Inclination
74.0442°
RAAN
302.1876°
Arg. of periapsis
351.739°
True anomaly
75.63539°
Mean anomaly
75.4596°
Eccentric anomaly
75.54748°
Mean motion
3.62016 °/min
Orbital period
99.44 mins
BSTAR
0.00037464
Loading maneuver chart data...
Computing Atmospheric mass density...
Loading historical data...
Loading historical data...
Loading historical data...
Loading historical data...
Loading historical data...
Loading historical data...
Loading historical data...

Documentation

Showing up to 5 results
|